Regional Weather Roundup
Issued by NWS

Home | Current Version | Previous Version | Graphics & Text | Print | Product List | Glossary On
Versions: 1 2 3 4 5 6 7 8 9 10 11 12 13 14 15 16 17 18 19 20 21 22 23 24 25 26 27 28 29 30 31 32 33 34 35 36 37 38 39 40 41 42 43 44 45 46 47 48 49 50
000
ASUS43 KDTX 290210
RWRMI
MICHIGAN HOURLY REGIONAL WEATHER ROUNDUP
NATIONAL WEATHER SERVICE DETROIT/PONTIAC MI
900 PM EST WED JAN 28 2015

NOTE: "FAIR" INDICATES FEW OR NO CLOUDS BELOW 12,000 FEET WITH NO
SIGNIFICANT WEATHER AND/OR OBSTRUCTION TO VISIBILITY.

MIZ047>049-052>055-059>063-066>070-074>076-081>083-290300-
SOUTHEAST LOWER MICHIGAN

CITY           SKY/WX    TMP DP  RH WIND       PRES   REMARKS
ADRIAN         FAIR      22  15  75 SE9       30.18F WCI  12
ALMA           MOCLDY    26   9  49 SE8       30.10F WCI  17
ANN ARBOR      MOCLDY    23  14  68 SE9       30.19F WCI  13
BAD AXE        CLOUDY    24  15  68 S13       30.17F WCI  12
CARO           CLOUDY    26  15  63 SE7       30.15F WCI  18
DETROIT CITY   CLOUDY    25  14  63 S10       30.23F WCI  15
DETROIT        CLOUDY    23  15  71 SE9       30.23F WCI  13
FLINT          CLOUDY    27  14  58 S13       30.15F WCI  16
GROSSE ILE     MOCLDY    23  16  74 SE10      30.22F WCI  12
HILLSDALE      MOCLDY    22  15  73 S6        30.12F WCI  15
HOWELL         MOCLDY    24  12  59 SE10G17   30.13F WCI  14

CITY           SKY/WX    TMP DP  RH WIND       PRES   REMARKS
JACKSON        MOCLDY    22  13  68 SE16      30.12F WCI   8
LAMBERTVILLE   PTCLDY    27  16  63 SE5       30.21F WCI  21
LANSING        MOCLDY    25   8  48 S14       30.11F WCI  13
LAPEER         FAIR      25  11  57 S9        30.17F WCI  15
MASON          MOCLDY    23  11  59 SE10G20   30.11F WCI  12
MONROE         MOCLDY    25  16  68 SE7       30.21F WCI  17
MT. CLEMENS    CLOUDY    22  16  79 SE9       30.21F WCI  11
PONTIAC        CLOUDY    23  11  60 S12       30.16F WCI  12
PORT HOPE        N/A     26  11  52 S8        30.17S WCI  18
PORT HURON     MOCLDY    21  16  79 S8        30.23F WCI  12
TRI CITIES     CLOUDY    28  10  46 S10       30.13F WCI  19
TROY           CLOUDY    26  14  62 S7        30.23F WCI  18
SAGINAW HB     CLOUDY    28  14  54 SE9       30.13F WCI  20
$$
MIZ043>046-050>051-056>058-064>065-071>073-077>080-290300-
SOUTHWEST LOWER MICHIGAN

CITY           SKY/WX    TMP DP  RH WIND       PRES   REMARKS
BATTLE CREEK   CLOUDY    26  12  55 SE14      30.09F WCI  14
BENTON HARBOR  CLOUDY    28  16  60 SE16G26   30.00F WCI  16
BIG RAPIDS     CLOUDY    28  10  48 SE13      30.02F WCI  17
COLDWATER      CLOUDY    25  14  64 SE14G21   30.10F WCI  13
FREMONT        FAIR      28   6  37 SE9       30.01F WCI  20
HOLLAND        CLOUDY    29  10  45 SE15      30.02F WCI  18
GRAND RAPIDS   CLOUDY    27   7  42 SE10      30.05F WCI  17
IONIA          FAIR      27  10  49 SE14G20   30.08F WCI  15
KALAMAZOO      CLOUDY    25  14  63 SE9       30.07F WCI  15
LUDINGTON      CLOUDY    31   9  39 SE12      29.99F WCI  21
MARSHALL       CLOUDY    23  13  64 SE10      30.10F WCI  12
MOUNT PLEASANT MOCLDY    26  14  59 SE7       30.08F WCI  19
MUSKEGON       CLOUDY    29   8  41 SE16G24   30.01F WCI  17
SOUTH HAVEN    CLOUDY    30  12  48 SE13G21   30.01F WCI  20
$$
MIZ016>042-290300-
NORTHERN LOWER MICHIGAN

CITY           SKY/WX    TMP DP  RH WIND       PRES   REMARKS
ALPENA         CLOUDY    26  13  57 S10       30.11F WCI  16
BEAVER ISLAND  CLOUDY    28  16  60 CALM      30.00F
BELLAIRE       CLOUDY    29  11  46 SE9G16    30.03F WCI  21
CADILLAC       CLOUDY    25  12  57 SE13      29.99F WCI  13
CHARLEVOIX     CLOUDY    29  13  50 SE8       30.04F WCI  21
FRANKFORT      CLOUDY    29  13  49 SE10G17   29.98F WCI  20
GAYLORD        CLOUDY    25   9  50 S12       30.02F WCI  14
GRAYLING       CLOUDY    26  11  53 SE7       30.05F WCI  18
HARBOR SPRINGS CLOUDY    29  10  44 E3        30.03F
HOUGHTON LAKE  CLOUDY    25  11  55 SE13      30.06F WCI  14
MANISTEE       CLOUDY    28   9  43 SE7G16    29.99F WCI  21
OSCODA         CLOUDY    27  12  54 S9        30.13F WCI  17
PELLSTON       CLOUDY    28  11  48 SE9       30.04F WCI  19
ROGERS CITY    CLOUDY    27  16  63 SE8       30.10F WCI  19
TRAVERSE CITY  CLOUDY    29  12  49 SE10G17   30.00F WCI  20
$$
MIZ007>008-015-290300-
EASTERN UPPER MICHIGAN

CITY           SKY/WX    TMP DP  RH WIND       PRES   REMARKS
KINROSS        CLOUDY    23  16  74 E9        30.05F WCI  13
MACKINAC ISLAN CLOUDY    29  15  55 SE7       30.04F WCI  22
NEWBERRY       CLOUDY    23  17  78 SE7       29.99F WCI  14
S. S. MARIE    FLURRIES  22  11  62 E9        30.06F WCI  12
MUNISING         N/A     32  25  75 S15G24    29.92F WCI  22
$$
MIZ004>006-011>014-085-290300-
CENTRAL UPPER MICHIGAN

CITY           SKY/WX    TMP DP  RH WIND       PRES   REMARKS
MANISTIQUE     CLOUDY    31  24  75 SE13      29.98F WCI  21
ESCANABA       CLOUDY    30  25  80 S12G20    29.95F WCI  21
MENOMINEE      CLOUDY    30  25  80 S13       29.93F WCI  20
SAWYER-GWINN   CLOUDY    28  25  86 S16G26    29.88F WCI  17
$$
MIZ001>003-009>011-084-290300-
WESTERN UPPER MICHIGAN

CITY           SKY/WX    TMP DP  RH WIND       PRES   REMARKS
IRON MOUNTAIN  CLOUDY    28  22  78 SE12G21   29.88F WCI  18
HOUGHTON       CLOUDY    30  21  69 S10       29.84R WCI  21
COPPER HARBOR    N/A     32  23  69 SW14G26   29.81F WCI  22
IRONWOOD       CLOUDY    30  21  69 S5        29.81F WCI  25
$$

ABBREVIATIONS USED IN REMARKS
   TC - TEMPERATURE IN CELSIUS
  WCI - WIND CHILL INDEX
   HX - HEAT INDEX
  VSB - VISIBILITY



USA.gov is the U.S. government's official web portal to all federal, state and local government web resources and services.